TimePDT,TemperatureF,Dew PointF,Humidity,Sea Level PressureIn,VisibilityMPH,Wind Direction,Wind SpeedMPH,Gust SpeedMPH,PrecipitationIn,Events,Conditions,WindDirDegrees,DateUTC
12:53 AM,54.0,48.9,83,29.87,10.0,South,6.9,-,0.00,,Overcast,170,2013-05-28 07:53:00
1:53 AM,54.0,48.0,80,29.88,10.0,South,9.2,-,N/A,,Overcast,180,2013-05-28 08:53:00
2:53 AM,54.0,48.0,80,29.88,10.0,South,5.8,-,N/A,,Overcast,170,2013-05-28 09:53:00
3:53 AM,54.0,48.9,83,29.88,10.0,SE,4.6,-,N/A,,Overcast,140,2013-05-28 10:53:00
4:26 AM,53.6,48.2,82,29.89,10.0,SSE,6.9,-,N/A,,Overcast,160,2013-05-28 11:26:00
4:53 AM,53.1,50.0,89,29.89,8.0,South,10.4,-,0.00,,Overcast,180,2013-05-28 11:53:00
5:22 AM,51.8,51.8,100,29.90,9.0,South,8.1,-,0.00,Rain,Light Rain,190,2013-05-28 12:22:00
5:53 AM,53.1,51.1,93,29.90,10.0,SE,3.5,-,0.00,,Overcast,140,2013-05-28 12:53:00
6:44 AM,53.6,50.0,88,29.90,10.0,South,5.8,-,N/A,,Overcast,170,2013-05-28 13:44:00
6:53 AM,54.0,50.0,86,29.90,10.0,South,4.6,-,N/A,,Overcast,170,2013-05-28 13:53:00
7:53 AM,54.0,51.1,90,29.91,10.0,South,5.8,-,N/A,,Overcast,190,2013-05-28 14:53:00
8:53 AM,55.0,51.1,86,29.91,10.0,SSW,8.1,-,N/A,,Overcast,210,2013-05-28 15:53:00
9:53 AM,57.0,51.1,81,29.92,10.0,South,8.1,-,0.01,,Overcast,180,2013-05-28 16:53:00
10:53 AM,57.9,48.9,72,29.92,10.0,South,8.1,-,N/A,,Mostly Cloudy,180,2013-05-28 17:53:00
11:53 AM,60.1,48.9,67,29.93,10.0,SSW,12.7,-,0.00,,Mostly Cloudy,210,2013-05-28 18:53:00
12:00 PM,60.8,48.2,63,29.93,10.0,SW,10.4,-,N/A,,Mostly Cloudy,220,2013-05-28 19:00:00
12:53 PM,63.0,46.0,54,29.93,10.0,SSW,15.0,-,0.00,,Mostly Cloudy,210,2013-05-28 19:53:00
1:53 PM,61.0,46.0,58,29.94,10.0,SW,10.4,-,N/A,,Overcast,220,2013-05-28 20:53:00
2:53 PM,62.1,46.0,56,29.92,10.0,South,12.7,-,N/A,,Overcast,190,2013-05-28 21:53:00
3:53 PM,64.0,46.0,52,29.92,10.0,South,11.5,-,N/A,,Mostly Cloudy,190,2013-05-28 22:53:00
4:53 PM,64.9,46.0,50,29.91,10.0,WSW,4.6,-,N/A,,Mostly Cloudy,240,2013-05-28 23:53:00
5:53 PM,64.0,43.0,46,29.89,10.0,SW,8.1,-,N/A,,Mostly Cloudy,230,2013-05-29 00:53:00
6:53 PM,63.0,41.0,45,29.86,10.0,West,8.1,-,N/A,,Mostly Cloudy,270,2013-05-29 01:53:00
7:53 PM,61.0,44.1,54,29.84,10.0,WSW,8.1,-,N/A,,Overcast,250,2013-05-29 02:53:00
8:53 PM,60.1,43.0,53,29.82,10.0,West,4.6,-,N/A,,Mostly Cloudy,260,2013-05-29 03:53:00
9:53 PM,57.9,45.0,62,29.81,10.0,Calm,Calm,-,N/A,,Mostly Cloudy,0,2013-05-29 04:53:00
10:53 PM,57.0,46.0,67,29.81,10.0,SSW,4.6,-,0.00,Rain,Light Rain,200,2013-05-29 05:53:00
11:53 PM,54.0,48.9,83,29.78,10.0,Calm,Calm,-,0.05,Rain,Light Rain,0,2013-05-29 06:53:00